Time,TemperatureF,DewpointF,PressureIn,WindDirection,WindDirectionDegrees,WindSpeedMPH,WindSpeedGustMPH,Humidity,HourlyPrecipIn,Conditions,Clouds,dailyrainin,SoftwareType,DateUTC
2013-04-04 18:10:00,34.3,32.8,30.15,South,175,1.0,1.0,94,0.12,,,0.41,Wunderground v.1.15,2013-04-04 22:10:00,
2013-04-04 18:15:00,34.3,32.8,30.15,South,175,1.0,2.0,94,0.11,,,0.42,Wunderground v.1.15,2013-04-04 22:15:00,
2013-04-04 18:20:00,34.3,32.8,30.15,South,175,0.0,0.0,94,0.12,,,0.43,Wunderground v.1.15,2013-04-04 22:20:00,
2013-04-04 18:25:00,34.3,32.8,30.14,East,101,0.0,2.0,94,0.10,,,0.43,Wunderground v.1.15,2013-04-04 22:25:00,
2013-04-04 18:30:00,34.3,32.8,30.14,SE,133,1.0,1.0,94,0.09,,,0.44,Wunderground v.1.15,2013-04-04 22:30:00,
2013-04-04 18:40:00,34.2,32.7,30.13,SE,145,1.0,2.0,94,0.08,,,0.46,Wunderground v.1.15,2013-04-04 22:40:00,
2013-04-04 18:45:00,34.2,32.7,30.12,SE,145,1.0,2.0,94,0.08,,,0.46,Wunderground v.1.15,2013-04-04 22:45:00,
2013-04-04 18:55:00,34.3,32.8,30.12,East,88,0.0,1.0,94,0.07,,,0.47,Wunderground v.1.15,2013-04-04 22:55:00,
2013-04-04 19:00:00,34.4,32.9,30.12,South,182,0.0,0.0,94,0.05,,,0.47,Wunderground v.1.15,2013-04-04 23:00:00,
2013-04-04 19:05:00,34.4,32.9,30.12,East,90,0.0,4.0,94,0.05,,,0.48,Wunderground v.1.15,2013-04-04 23:05:00,
2013-04-04 19:10:00,34.4,32.9,30.11,ENE,78,1.0,1.0,94,0.05,,,0.48,Wunderground v.1.15,2013-04-04 23:10:00,
2013-04-04 19:15:00,34.4,32.9,30.11,ENE,72,2.0,2.0,94,0.04,,,0.48,Wunderground v.1.15,2013-04-04 23:15:00,
2013-04-04 19:25:00,34.4,32.9,30.11,SW,227,1.0,2.0,94,0.04,,,0.49,Wunderground v.1.15,2013-04-04 23:25:00,
2013-04-04 19:35:00,34.5,33.0,30.10,North,5,1.0,1.0,94,0.00,,,0.50,Wunderground v.1.15,2013-04-04 23:35:00,
2013-04-04 19:40:00,34.5,32.7,30.11,SE,128,1.0,1.0,93,0.00,,,0.50,Wunderground v.1.15,2013-04-04 23:40:00,
2013-04-04 19:45:00,34.5,32.7,30.11,WNW,289,1.0,1.0,93,0.00,,,0.50,Wunderground v.1.15,2013-04-04 23:45:00,
2013-04-04 19:50:00,34.5,32.7,30.11,WNW,300,1.0,1.0,93,0.04,,,0.51,Wunderground v.1.15,2013-04-04 23:50:00,
2013-04-04 19:55:00,34.5,32.7,30.11,NW,309,1.0,1.0,93,0.04,,,0.51,Wunderground v.1.15,2013-04-04 23:55:00,
2013-04-04 20:05:00,34.5,32.7,30.10,NW,310,0.0,0.0,93,0.04,,,0.51,Wunderground v.1.15,2013-04-05 00:05:00,
2013-04-04 20:15:00,34.4,32.6,30.10,NW,310,0.0,0.0,93,0.00,,,0.52,Wunderground v.1.15,2013-04-05 00:15:00,
2013-04-04 20:25:00,34.3,32.5,30.10,NW,310,0.0,0.0,93,0.00,,,0.52,Wunderground v.1.15,2013-04-05 00:25:00,
2013-04-04 20:40:00,34.3,32.8,30.09,NW,309,0.0,0.0,94,0.00,,,0.53,Wunderground v.1.15,2013-04-05 00:40:00,
2013-04-04 20:45:00,34.3,32.8,30.09,NW,310,0.0,0.0,94,0.00,,,0.53,Wunderground v.1.15,2013-04-05 00:45:00,
2013-04-04 20:55:00,34.3,32.8,30.09,NW,310,1.0,1.0,94,0.00,,,0.54,Wunderground v.1.15,2013-04-05 00:55:00,
2013-04-04 21:00:00,34.4,32.9,30.09,NW,309,0.0,0.0,94,0.00,,,0.54,Wunderground v.1.15,2013-04-05 01:00:00,
2013-04-04 21:10:00,34.3,32.8,30.09,NW,309,0.0,0.0,94,0.05,,,0.55,Wunderground v.1.15,2013-04-05 01:10:00,
2013-04-04 21:15:00,34.3,32.8,30.09,NW,310,0.0,1.0,94,0.05,,,0.55,Wunderground v.1.15,2013-04-05 01:15:00,
2013-04-04 21:20:00,34.3,32.8,30.09,NW,309,0.0,0.0,94,0.04,,,0.55,Wunderground v.1.15,2013-04-05 01:20:00,
2013-04-04 21:25:00,34.3,32.8,30.09,NW,310,0.0,0.0,94,0.00,,,0.56,Wunderground v.1.15,2013-04-05 01:25:00,
2013-04-04 21:35:00,34.4,32.9,30.09,NW,309,0.0,1.0,94,0.00,,,0.56,Wunderground v.1.15,2013-04-05 01:35:00,
2013-04-04 21:40:00,34.5,33.0,30.08,NE,41,0.0,0.0,94,0.00,,,0.56,Wunderground v.1.15,2013-04-05 01:40:00,
2013-04-04 21:45:00,34.6,33.1,30.08,North,5,1.0,1.0,94,0.00,,,0.56,Wunderground v.1.15,2013-04-05 01:45:00,
2013-04-04 21:55:00,34.5,33.0,30.08,North,5,0.0,1.0,94,0.00,,,0.56,Wunderground v.1.15,2013-04-05 01:55:00,
2013-04-04 22:00:00,34.5,33.0,30.08,North,360,1.0,1.0,94,0.00,,,0.57,Wunderground v.1.15,2013-04-05 02:00:00,
2013-04-04 22:05:00,34.6,33.1,30.08,ESE,103,1.0,1.0,94,0.00,,,0.57,Wunderground v.1.15,2013-04-05 02:05:00,
2013-04-04 22:10:00,34.6,33.1,30.08,ESE,103,1.0,1.0,94,0.00,,,0.57,Wunderground v.1.15,2013-04-05 02:10:00,
2013-04-04 22:15:00,34.6,33.1,30.08,ESE,103,0.0,1.0,94,0.00,,,0.57,Wunderground v.1.15,2013-04-05 02:15:00,
2013-04-04 22:25:00,34.5,33.0,30.07,ESE,103,1.0,1.0,94,0.00,,,0.57,Wunderground v.1.15,2013-04-05 02:25:00,
2013-04-04 22:30:00,34.6,33.1,30.07,ESE,103,1.0,1.0,94,0.00,,,0.57,Wunderground v.1.15,2013-04-05 02:30:00,
2013-04-04 22:40:00,34.5,33.0,30.08,ESE,103,0.0,0.0,94,0.00,,,0.57,Wunderground v.1.15,2013-04-05 02:40:00,
2013-04-04 22:45:00,34.5,33.0,30.08,North,355,0.0,2.0,94,0.00,,,0.57,Wunderground v.1.15,2013-04-05 02:45:00,
2013-04-04 22:50:00,34.6,33.1,30.08,North,355,0.0,1.0,94,0.00,,,0.58,Wunderground v.1.15,2013-04-05 02:50:00,
2013-04-04 22:55:00,34.5,33.0,30.07,North,355,0.0,1.0,94,0.00,,,0.58,Wunderground v.1.15,2013-04-05 02:55:00,
2013-04-04 23:00:00,34.5,33.0,30.07,North,355,0.0,0.0,94,0.00,,,0.58,Wunderground v.1.15,2013-04-05 03:00:00,
2013-04-04 23:10:00,34.6,33.1,30.07,North,355,0.0,0.0,94,0.00,,,0.58,Wunderground v.1.15,2013-04-05 03:10:00,
2013-04-04 23:15:00,34.6,33.1,30.07,NW,312,1.0,1.0,94,0.00,,,0.58,Wunderground v.1.15,2013-04-05 03:15:00,
2013-04-04 23:25:00,34.6,33.1,30.07,NW,312,1.0,1.0,94,0.00,,,0.59,Wunderground v.1.15,2013-04-05 03:25:00,
2013-04-04 23:30:00,34.6,33.1,30.06,NW,312,0.0,0.0,94,0.06,,,0.60,Wunderground v.1.15,2013-04-05 03:30:00,
2013-04-04 23:40:00,34.6,33.1,30.06,NW,312,0.0,0.0,94,0.05,,,0.60,Wunderground v.1.15,2013-04-05 03:40:00,
2013-04-04 23:45:00,34.6,33.1,30.06,NW,312,0.0,0.0,94,0.04,,,0.61,Wunderground v.1.15,2013-04-05 03:45:00,
2013-04-04 23:50:00,34.5,33.0,30.06,NW,312,0.0,0.0,94,0.04,,,0.61,Wunderground v.1.15,2013-04-05 03:50:00,
2013-04-04 23:55:00,34.6,33.1,30.06,NW,312,0.0,0.0,94,0.04,,,0.61,Wunderground v.1.15,2013-04-05 03:55:00,